Location: Newark
(44.3248°N, 23.7839°E)
Time: 22:17:39
(UTC+00:00)

PCSat - Pass Details

Date: 18 April 2024
Orbit: 783 x 792 km, 67.1° (Epoch: 20 May)

Event Time Altitude Azimuth Distance (km) Brightness Sun altitude
Rises 19:31:19 0° 240° (WSW) 3,270 13.0 -22.1°
Reaches altitude 10° 19:33:59 10° 251° (WSW) 2,347 12.3 -22.4°
Maximum altitude 19:38:44 31° 313° (NW) 1,355 11.4 -23.0°
Drops below altitude 10° 19:43:32 10° 16° (NNE) 2,364 12.4 -23.6°
Sets 19:46:14 0° 26° (NNE) 3,298 13.0 -24.0°
